Time,TemperatureF,DewpointF,PressureIn,WindDirection,WindDirectionDegrees,WindSpeedMPH,WindSpeedGustMPH,Humidity,HourlyPrecipIn,Conditions,Clouds,dailyrainin,SoftwareType,DateUTC
2013-02-15 00:02:00,55.0,53.0,30.02,WNW,288,0.0,2.0,94,0.01,,,0.28,,2013-02-15 05:02:00,
2013-02-15 00:12:00,55.0,53.0,30.02,WNW,288,0.0,2.0,94,0.01,,,0.28,,2013-02-15 05:12:00,
2013-02-15 00:22:00,55.0,53.0,30.04,WNW,288,0.0,1.0,94,0.02,,,0.29,,2013-02-15 05:22:00,
2013-02-15 00:32:00,55.0,53.0,30.03,NNE,26,0.0,4.0,94,0.02,,,0.29,,2013-02-15 05:32:00,
2013-02-15 00:42:00,55.0,53.0,30.03,NNE,26,0.0,4.0,94,0.02,,,0.29,,2013-02-15 05:42:00,
2013-02-15 00:52:00,55.0,53.0,30.03,NE,34,0.0,4.0,93,0.01,,,0.29,,2013-02-15 05:52:00,
2013-02-15 01:02:00,54.0,52.0,30.03,NNE,33,0.0,9.0,93,0.01,,,0.29,,2013-02-15 06:02:00,
2013-02-15 01:11:00,54.0,52.0,30.02,NE,47,1.0,7.0,93,0.00,,,0.29,,2013-02-15 06:11:00,
2013-02-15 01:22:00,54.0,52.0,30.02,NE,47,1.0,7.0,93,0.00,,,0.29,,2013-02-15 06:22:00,
2013-02-15 01:32:00,54.0,52.0,30.03,NNE,19,1.0,5.0,93,0.00,,,0.29,,2013-02-15 06:32:00,
2013-02-15 01:42:00,54.0,52.0,30.03,NNE,19,1.0,5.0,93,0.00,,,0.29,,2013-02-15 06:42:00,
2013-02-15 01:52:00,54.0,52.0,30.02,North,10,1.0,6.0,93,0.00,,,0.29,,2013-02-15 06:52:00,
2013-02-15 02:01:00,54.0,52.0,30.03,NNE,21,1.0,6.0,93,0.00,,,0.29,,2013-02-15 07:01:00,
2013-02-15 02:11:00,54.0,52.0,30.03,NNE,21,1.0,6.0,93,0.00,,,0.29,,2013-02-15 07:11:00,
2013-02-15 02:21:00,53.0,51.0,30.04,North,5,0.0,3.0,93,0.00,,,0.29,,2013-02-15 07:21:00,
2013-02-15 02:32:00,53.0,51.0,30.05,North,5,0.0,2.0,93,0.00,,,0.29,,2013-02-15 07:32:00,
2013-02-15 02:42:00,53.0,51.0,30.05,North,5,0.0,2.0,93,0.00,,,0.29,,2013-02-15 07:42:00,
2013-02-15 02:52:00,53.0,51.0,30.05,North,5,0.0,0.0,93,0.00,,,0.28,,2013-02-15 07:52:00,
2013-02-15 03:01:00,53.0,51.0,30.04,North,5,0.0,3.0,93,0.00,,,0.28,,2013-02-15 08:01:00,
2013-02-15 03:11:00,53.0,51.0,30.04,North,5,0.0,3.0,93,0.00,,,0.28,,2013-02-15 08:11:00,
2013-02-15 03:21:00,53.0,51.0,30.03,North,5,0.0,1.0,93,0.00,,,0.28,,2013-02-15 08:21:00,
2013-02-15 03:32:00,53.0,51.0,30.02,North,5,0.0,3.0,93,0.00,,,0.28,,2013-02-15 08:32:00,
2013-02-15 03:42:00,53.0,51.0,30.02,North,5,0.0,3.0,93,0.00,,,0.28,,2013-02-15 08:42:00,
2013-02-15 03:53:00,53.0,51.0,30.03,North,5,1.0,3.0,93,0.00,,,0.27,,2013-02-15 08:53:00,
2013-02-15 04:02:00,52.0,50.0,30.02,North,5,1.0,3.0,93,0.00,,,0.27,,2013-02-15 09:02:00,
2013-02-15 04:12:00,52.0,50.0,30.02,North,5,1.0,3.0,93,0.00,,,0.27,,2013-02-15 09:12:00,
2013-02-15 04:21:00,52.0,50.0,30.02,North,9,0.0,3.0,93,0.00,,,0.27,,2013-02-15 09:21:00,
2013-02-15 04:32:00,52.0,50.0,30.03,NNE,12,0.0,4.0,93,0.00,,,0.27,,2013-02-15 09:32:00,
2013-02-15 04:42:00,52.0,50.0,30.03,NNE,12,0.0,4.0,93,0.00,,,0.27,,2013-02-15 09:42:00,
2013-02-15 04:52:00,52.0,50.0,30.03,NE,42,0.0,5.0,93,0.00,,,0.26,,2013-02-15 09:52:00,
2013-02-15 05:01:00,52.0,50.0,30.04,NE,42,0.0,3.0,93,0.00,,,0.26,,2013-02-15 10:01:00,
2013-02-15 05:11:00,52.0,50.0,30.04,NE,42,0.0,3.0,93,0.00,,,0.26,,2013-02-15 10:11:00,
2013-02-15 05:21:00,52.0,50.0,30.04,NE,42,1.0,5.0,94,0.00,,,0.26,,2013-02-15 10:21:00,
2013-02-15 05:32:00,52.0,50.0,30.03,NNE,19,1.0,6.0,93,0.00,,,0.26,,2013-02-15 10:32:00,
2013-02-15 05:42:00,52.0,50.0,30.03,NNE,19,1.0,6.0,93,0.00,,,0.26,,2013-02-15 10:42:00,
2013-02-15 05:52:00,51.0,49.0,30.04,NNE,19,0.0,4.0,93,0.00,,,0.26,,2013-02-15 10:52:00,
2013-02-15 06:01:00,51.0,49.0,30.05,NNE,19,0.0,2.0,93,0.00,,,0.26,,2013-02-15 11:01:00,
2013-02-15 06:11:00,51.0,49.0,30.05,NNE,19,0.0,2.0,93,0.00,,,0.26,,2013-02-15 11:11:00,
2013-02-15 06:23:00,51.0,49.0,30.05,NNE,19,0.0,2.0,93,0.00,,,0.26,,2013-02-15 11:23:00,
2013-02-15 06:32:00,51.0,49.0,30.05,NNE,19,0.0,0.0,94,0.00,,,0.26,,2013-02-15 11:32:00,
2013-02-15 06:42:00,51.0,49.0,30.05,NNE,19,0.0,0.0,94,0.00,,,0.26,,2013-02-15 11:42:00,
2013-02-15 06:52:00,52.0,50.0,30.05,NNE,18,0.0,3.0,94,0.00,,,0.26,,2013-02-15 11:52:00,
2013-02-15 07:02:00,52.0,50.0,30.05,NNE,30,2.0,5.0,94,0.00,,,0.26,,2013-02-15 12:02:00,
2013-02-15 07:11:00,52.0,50.0,30.05,NNE,30,2.0,5.0,94,0.00,,,0.26,,2013-02-15 12:11:00,
2013-02-15 07:21:00,51.0,49.0,30.06,NNE,30,0.0,3.0,93,0.00,,,0.26,,2013-02-15 12:21:00,
2013-02-15 07:32:00,51.0,49.0,30.06,NNE,28,1.0,2.0,93,0.00,,,0.26,,2013-02-15 12:32:00,
2013-02-15 07:42:00,51.0,49.0,30.06,NNE,28,1.0,2.0,93,0.00,,,0.26,,2013-02-15 12:42:00,
2013-02-15 07:52:00,51.0,49.0,30.07,NNE,25,0.0,3.0,93,0.00,,,0.26,,2013-02-15 12:52:00,
2013-02-15 08:02:00,51.0,49.0,30.08,NNE,25,0.0,3.0,93,0.00,,,0.26,,2013-02-15 13:02:00,
2013-02-15 08:11:00,51.0,49.0,30.08,NNE,25,0.0,3.0,93,0.00,,,0.26,,2013-02-15 13:11:00,
2013-02-15 08:22:00,51.0,49.0,30.08,NNE,24,1.0,4.0,93,0.00,,,0.26,,2013-02-15 13:22:00,
2013-02-15 08:32:00,51.0,49.0,30.09,NNE,24,0.0,3.0,93,0.00,,,0.26,,2013-02-15 13:32:00,
2013-02-15 08:42:00,51.0,49.0,30.09,NNE,24,0.0,3.0,93,0.00,,,0.26,,2013-02-15 13:42:00,
2013-02-15 08:52:00,51.0,49.0,30.09,NNE,26,0.0,4.0,93,0.00,,,0.26,,2013-02-15 13:52:00,
2013-02-15 09:01:00,51.0,49.0,30.09,NNE,22,1.0,5.0,93,0.00,,,0.26,,2013-02-15 14:01:00,
2013-02-15 09:12:00,51.0,49.0,30.09,NNE,22,1.0,5.0,93,0.00,,,0.26,,2013-02-15 14:12:00,
2013-02-15 09:21:00,51.0,49.0,30.09,NNE,22,0.0,1.0,93,0.00,,,0.26,,2013-02-15 14:21:00,
2013-02-15 09:32:00,51.0,49.0,30.10,NW,307,1.0,5.0,92,0.00,,,0.26,,2013-02-15 14:32:00,
2013-02-15 09:42:00,51.0,49.0,30.10,NW,307,1.0,5.0,92,0.00,,,0.26,,2013-02-15 14:42:00,
2013-02-15 09:52:00,52.0,50.0,30.10,NW,318,0.0,3.0,92,0.00,,,0.26,,2013-02-15 14:52:00,
2013-02-15 10:02:00,52.0,50.0,30.10,ENE,69,0.0,4.0,92,0.00,,,0.26,,2013-02-15 15:02:00,
2013-02-15 10:11:00,52.0,50.0,30.10,ENE,69,0.0,4.0,92,0.00,,,0.26,,2013-02-15 15:11:00,
2013-02-15 10:21:00,53.0,50.0,30.10,NE,48,0.0,4.0,91,0.00,,,0.26,,2013-02-15 15:21:00,
2013-02-15 10:32:00,53.0,50.0,30.10,North,355,2.0,6.0,91,0.00,,,0.26,,2013-02-15 15:32:00,
2013-02-15 10:42:00,54.0,51.0,30.11,North,355,0.0,3.0,90,0.00,,,0.26,,2013-02-15 15:42:00,
2013-02-15 10:52:00,54.0,51.0,30.11,North,355,0.0,3.0,90,0.00,,,0.26,,2013-02-15 15:52:00,
2013-02-15 11:02:00,54.0,51.0,30.08,North,9,3.0,6.0,89,0.00,,,0.26,,2013-02-15 16:02:00,
2013-02-15 11:11:00,54.0,51.0,30.08,North,9,3.0,6.0,89,0.00,,,0.26,,2013-02-15 16:11:00,
2013-02-15 11:22:00,54.0,51.0,30.10,ENE,60,0.0,3.0,89,0.00,,,0.26,,2013-02-15 16:22:00,
2013-02-15 11:32:00,56.0,52.0,30.09,NE,52,3.0,5.0,86,0.00,,,0.26,,2013-02-15 16:32:00,
2013-02-15 11:42:00,56.0,52.0,30.09,NE,52,3.0,5.0,86,0.00,,,0.26,,2013-02-15 16:42:00,
2013-02-15 11:52:00,59.0,53.0,30.09,NE,51,3.0,4.0,81,0.00,,,0.26,,2013-02-15 16:52:00,
2013-02-15 12:01:00,61.0,54.0,30.09,NE,44,1.0,5.0,77,0.00,,,0.26,,2013-02-15 17:01:00,
2013-02-15 12:11:00,61.0,54.0,30.08,NW,309,0.0,4.0,78,0.00,,,0.26,,2013-02-15 17:11:00,
2013-02-15 12:21:00,61.0,54.0,30.08,NW,309,0.0,4.0,78,0.00,,,0.26,,2013-02-15 17:21:00,
2013-02-15 12:32:00,62.0,55.0,30.07,NW,313,0.0,3.0,78,0.00,,,0.26,,2013-02-15 17:32:00,
2013-02-15 12:42:00,62.0,55.0,30.07,NW,313,0.0,3.0,78,0.00,,,0.26,,2013-02-15 17:42:00,
2013-02-15 12:52:00,63.0,55.0,30.07,NW,313,1.0,3.0,74,0.00,,,0.26,,2013-02-15 17:52:00,
2013-02-15 13:01:00,64.0,56.0,30.05,NW,313,0.0,2.0,75,0.00,,,0.26,,2013-02-15 18:01:00,
2013-02-15 13:11:00,64.0,56.0,30.05,NW,313,0.0,2.0,75,0.00,,,0.26,,2013-02-15 18:11:00,
2013-02-15 13:21:00,64.0,55.0,30.06,West,271,1.0,6.0,72,0.00,,,0.26,,2013-02-15 18:21:00,
2013-02-15 13:32:00,65.0,56.0,30.04,SW,228,0.0,4.0,72,0.00,,,0.26,,2013-02-15 18:32:00,
2013-02-15 13:42:00,65.0,56.0,30.04,SW,228,0.0,4.0,72,0.00,,,0.26,,2013-02-15 18:42:00,
2013-02-15 13:53:00,66.0,55.0,30.03,ENE,77,2.0,4.0,68,0.00,,,0.26,,2013-02-15 18:53:00,
2013-02-15 14:01:00,67.0,57.0,30.02,ENE,71,1.0,5.0,70,0.00,,,0.26,,2013-02-15 19:01:00,
2013-02-15 14:11:00,67.0,57.0,30.02,ENE,71,1.0,5.0,70,0.00,,,0.26,,2013-02-15 19:11:00,
2013-02-15 14:22:00,68.0,56.0,30.02,SSW,192,2.0,5.0,65,0.00,,,0.26,,2013-02-15 19:22:00,
2013-02-15 14:32:00,68.0,57.0,30.01,SW,223,0.0,5.0,67,0.00,,,0.26,,2013-02-15 19:32:00,
2013-02-15 14:42:00,68.0,57.0,30.01,SW,223,0.0,5.0,67,0.00,,,0.26,,2013-02-15 19:42:00,
2013-02-15 14:52:00,69.0,57.0,30.00,South,182,2.0,4.0,66,0.00,,,0.26,,2013-02-15 19:52:00,
2013-02-15 15:01:00,70.0,57.0,30.00,West,274,4.0,8.0,63,0.00,,,0.26,,2013-02-15 20:01:00,
2013-02-15 15:11:00,70.0,57.0,30.00,West,274,4.0,8.0,63,0.00,,,0.26,,2013-02-15 20:11:00,
2013-02-15 15:21:00,68.0,55.0,29.99,West,277,3.0,10.0,64,0.00,,,0.26,,2013-02-15 20:21:00,
2013-02-15 15:32:00,68.0,54.0,29.99,NW,314,4.0,9.0,61,0.00,,,0.26,,2013-02-15 20:32:00,
2013-02-15 15:42:00,68.0,54.0,29.99,NW,314,4.0,9.0,61,0.00,,,0.26,,2013-02-15 20:42:00,
2013-02-15 15:52:00,68.0,54.0,29.99,West,278,2.0,10.0,60,0.00,,,0.25,,2013-02-15 20:52:00,
2013-02-15 16:02:00,68.0,54.0,29.99,South,175,2.0,9.0,61,0.00,,,0.25,,2013-02-15 21:02:00,
2013-02-15 16:11:00,68.0,54.0,29.99,South,175,2.0,9.0,61,0.00,,,0.25,,2013-02-15 21:11:00,
2013-02-15 16:22:00,68.0,54.0,29.99,West,271,1.0,7.0,62,0.00,,,0.25,,2013-02-15 21:22:00,
2013-02-15 16:32:00,68.0,54.0,29.99,West,281,1.0,8.0,62,0.00,,,0.25,,2013-02-15 21:32:00,
2013-02-15 16:42:00,68.0,54.0,29.99,West,281,1.0,8.0,62,0.00,,,0.25,,2013-02-15 21:42:00,
2013-02-15 16:52:00,67.0,54.0,29.99,West,269,2.0,6.0,63,0.00,,,0.23,,2013-02-15 21:52:00,
2013-02-15 17:02:00,67.0,54.0,29.99,West,263,1.0,5.0,63,0.00,,,0.23,,2013-02-15 22:02:00,
2013-02-15 17:11:00,67.0,54.0,29.99,West,263,1.0,5.0,63,0.00,,,0.23,,2013-02-15 22:11:00,
2013-02-15 17:22:00,67.0,54.0,29.99,West,263,0.0,5.0,62,0.00,,,0.23,,2013-02-15 22:22:00,
2013-02-15 17:32:00,67.0,54.0,29.99,West,263,1.0,5.0,62,0.00,,,0.23,,2013-02-15 22:32:00,
2013-02-15 17:42:00,67.0,54.0,29.99,West,263,1.0,5.0,62,0.00,,,0.23,,2013-02-15 22:42:00,
2013-02-15 17:52:00,67.0,53.0,29.99,West,263,0.0,3.0,61,0.00,,,0.18,,2013-02-15 22:52:00,
2013-02-15 18:02:00,66.0,53.0,29.98,West,263,0.0,2.0,63,0.00,,,0.18,,2013-02-15 23:02:00,
2013-02-15 18:11:00,66.0,53.0,29.98,West,263,0.0,2.0,63,0.00,,,0.18,,2013-02-15 23:11:00,
2013-02-15 18:21:00,66.0,54.0,29.97,West,263,0.0,0.0,65,0.00,,,0.18,,2013-02-15 23:21:00,
2013-02-15 18:32:00,64.0,52.0,29.98,West,263,0.0,0.0,66,0.00,,,0.18,,2013-02-15 23:32:00,
2013-02-15 18:42:00,64.0,52.0,29.98,West,263,0.0,0.0,66,0.00,,,0.18,,2013-02-15 23:42:00,
2013-02-15 18:52:00,63.0,52.0,29.98,West,263,0.0,0.0,68,0.00,,,0.13,,2013-02-15 23:52:00,
2013-02-15 19:02:00,62.0,52.0,29.98,West,263,0.0,0.0,71,0.00,,,0.13,,2013-02-16 00:02:00,
2013-02-15 19:11:00,62.0,52.0,29.98,West,263,0.0,0.0,71,0.00,,,0.13,,2013-02-16 00:11:00,
2013-02-15 19:22:00,61.0,53.0,29.98,West,263,0.0,0.0,74,0.00,,,0.13,,2013-02-16 00:22:00,
2013-02-15 19:32:00,59.0,51.0,29.99,West,263,0.0,0.0,76,0.00,,,0.13,,2013-02-16 00:32:00,
2013-02-15 19:42:00,59.0,51.0,29.99,West,263,0.0,0.0,76,0.00,,,0.13,,2013-02-16 00:42:00,
2013-02-15 19:52:00,58.0,52.0,29.99,ENE,58,0.0,4.0,80,0.00,,,0.06,,2013-02-16 00:52:00,
2013-02-15 20:02:00,58.0,52.0,29.99,ENE,57,0.0,2.0,81,0.00,,,0.06,,2013-02-16 01:02:00,
2013-02-15 20:11:00,58.0,52.0,29.99,ENE,57,0.0,2.0,81,0.00,,,0.06,,2013-02-16 01:11:00,
2013-02-15 20:21:00,58.0,53.0,30.00,ENE,57,0.0,0.0,82,0.00,,,0.06,,2013-02-16 01:21:00,
2013-02-15 20:32:00,57.0,52.0,30.00,ENE,57,0.0,3.0,83,0.00,,,0.06,,2013-02-16 01:32:00,
2013-02-15 20:42:00,57.0,52.0,30.00,ENE,57,0.0,3.0,83,0.00,,,0.06,,2013-02-16 01:42:00,
2013-02-15 20:52:00,57.0,52.0,30.00,ENE,57,0.0,1.0,83,0.00,,,0.05,,2013-02-16 01:52:00,
2013-02-15 21:01:00,56.0,51.0,30.00,ENE,57,0.0,0.0,84,0.00,,,0.05,,2013-02-16 02:01:00,
2013-02-15 21:11:00,56.0,51.0,30.00,ENE,57,0.0,0.0,84,0.00,,,0.05,,2013-02-16 02:11:00,
2013-02-15 21:21:00,56.0,51.0,30.01,ENE,57,0.0,0.0,84,0.00,,,0.05,,2013-02-16 02:21:00,
2013-02-15 21:32:00,55.0,51.0,30.01,ENE,57,0.0,0.0,85,0.00,,,0.05,,2013-02-16 02:32:00,
2013-02-15 21:42:00,55.0,51.0,30.01,ENE,57,0.0,0.0,85,0.00,,,0.05,,2013-02-16 02:42:00,
2013-02-15 21:52:00,54.0,50.0,30.01,ENE,57,0.0,0.0,87,0.00,,,0.04,,2013-02-16 02:52:00,
2013-02-15 22:02:00,54.0,50.0,30.01,ENE,57,0.0,0.0,87,0.00,,,0.04,,2013-02-16 03:02:00,
2013-02-15 22:11:00,54.0,50.0,30.01,ENE,57,0.0,0.0,87,0.00,,,0.04,,2013-02-16 03:11:00,
2013-02-15 22:21:00,53.0,50.0,30.01,ENE,57,0.0,0.0,88,0.00,,,0.04,,2013-02-16 03:21:00,
2013-02-15 22:32:00,53.0,50.0,30.01,ENE,57,0.0,0.0,89,0.00,,,0.04,,2013-02-16 03:32:00,
2013-02-15 22:42:00,53.0,50.0,30.01,ENE,57,0.0,0.0,89,0.00,,,0.04,,2013-02-16 03:42:00,
2013-02-15 22:52:00,52.0,49.0,30.01,ENE,57,0.0,0.0,90,0.00,,,0.02,,2013-02-16 03:52:00,
2013-02-15 23:01:00,52.0,49.0,30.01,ENE,57,0.0,0.0,90,0.00,,,0.02,,2013-02-16 04:01:00,
2013-02-15 23:11:00,52.0,49.0,30.01,ENE,57,0.0,0.0,90,0.00,,,0.02,,2013-02-16 04:11:00,
2013-02-15 23:21:00,52.0,49.0,30.01,ENE,57,0.0,0.0,90,0.00,,,0.02,,2013-02-16 04:21:00,
2013-02-15 23:32:00,52.0,49.0,30.01,ENE,57,0.0,0.0,90,0.00,,,0.02,,2013-02-16 04:32:00,
2013-02-15 23:42:00,52.0,49.0,30.01,ENE,57,0.0,0.0,90,0.00,,,0.02,,2013-02-16 04:42:00,
2013-02-15 23:52:00,51.0,48.0,30.01,ENE,57,0.0,0.0,90,0.00,,,0.02,,2013-02-16 04:52:00,